[[{"header":{"parameterUnit":"m.s-1","parameterCategory":2,"la1":30.2991,"la2":30.254,"lo1":-89.0895,"lo2":-89.0444,"dx":0.0017,"dy":0.0017,"nx":28,"ny":28,"refTime":"2022-11-05T21:00:00:Z","depth":"0","parameterNumber":2,"parameterNumberName":"U-component_of_CURRENTS"},"data":[0,0,0,0,0,0,0,0,0,0,0,0,0,0,0,0,0,0,0,0,0,0,0,0,0,0,0,0,0,0,0,0,0,0,0,0,0,0,0,0,0,0,0,0,0,0,0,0,0,0,0,0,0,0,0,0,0,0,-0.213,-0.213,0,-0.2118,-0.2118,-0.2117,-0.2108,-0.2109,-0.2109,-0.211,-0.2046,-0.2044,-0.2042,0,0,0,0,0,0,0,0,0,0,0,0,0,-0.2058,-0.206,-0.213,-0.213,-0.213,-0.2118,-0.2118,-0.2117,-0.2108,-0.2109,-0.2109,-0.211,-0.2047,-0.2045,-0.2042,0,0,0,0,0,0,0,0,0,0,0,0,0,-0.2067,-0.206,-0.213,-0.2129,-0.2129,-0.2119,-0.2118,-0.2117,-0.2108,-0.2109,-0.211,-0.211,-0.2048,-0.2045,-0.2042,-0.201,0,0,-0.2032,-0.2031,0,0,0,0,0,0,0,0,-0.2067,-0.2069,-0.2128,-0.2129,-0.2129,-0.212,-0.207,-0.208,-0.2108,-0.211,-0.211,-0.211,-0.2069,-0.2064,-0.2054,-0.2007,-0.2004,-0.2032,-0.203,-0.2029,-0.2028,0,0,0,0,0,0,0,-0.2067,-0.2069,-0.212,-0.2129,-0.2129,-0.21,-0.2102,-0.2071,-0.2081,-0.211,-0.2111,-0.2118,-0.2068,-0.2057,-0.2052,-0.2003,-0.2032,-0.2029,-0.2027,-0.2026,-0.1987,-0.1988,0,0,0,0,0,0,-0.2083,-0.2069,-0.212,-0.212,-0.2105,-0.2101,-0.2104,-0.2118,-0.2083,-0.208,-0.2118,-0.2118,-0.2062,-0.2056,-0.205,-0.2127,-0.2029,-0.2026,-0.2024,-0.1986,-0.1987,-0.1988,0,0,0,0,0,0,-0.2082,-0.2088,-0.2121,-0.2098,-0.2101,-0.2103,-0.2119,-0.2118,-0.2117,-0.209,-0.2085,-0.2121,-0.2062,-0.2054,-0.2036,-0.212,-0.2024,-0.2022,-0.1985,-0.1986,-0.1987,-0.2205,0,0,0,0,0,0,-0.208,-0.2088,-0.2098,-0.21,-0.2103,-0.2143,-0.2119,-0.2117,-0.2123,-0.2123,-0.2091,-0.2085,-0.2062,-0.2041,-0.2033,-0.2114,-0.2019,-0.1984,-0.1986,-0.1987,-0.2197,-0.2213,-0.2228,0,0,0,0,0,-0.2077,-0.2102,-0.2099,-0.2105,-0.212,-0.2146,-0.2145,-0.2143,-0.2123,-0.214,-0.2106,-0.2087,-0.2046,-0.2039,-0.2029,-0.2111,-0.1983,-0.1985,-0.1987,-0.219,-0.221,-0.2227,0,0,0,0,0,0,-0.2074,-0.2104,-0.21,-0.2132,-0.2149,-0.2147,-0.2158,-0.2147,-0.2131,-0.2123,-0.2085,-0.2078,-0.2094,-0.2049,-0.2042,-0.2096,-0.2016,-0.2016,-0.2173,-0.2191,-0.2207,-0.2227,-0.2017,0,0,0,0,0,-0.2079,-0.2104,-0.2126,-0.2147,-0.2161,-0.2155,-0.216,-0.216,-0.215,-0.2144,-0.2126,-0.2098,-0.2091,-0.2098,-0.2067,-0.2092,-0.2024,-0.2135,-0.2151,-0.2165,-0.217,-0.2117,-0.2129,-0.1994,-0.1994,-0.1994,0,0,-0.2079,-0.21,-0.2111,-0.2148,-0.2153,-0.2211,-0.2159,-0.2179,-0.2234,-0.2136,-0.2187,-0.2139,-0.2098,-0.2137,-0.2143,-0.212,-0.217,-0.2168,-0.2181,-0.2178,-0.212,-0.2133,-0.2145,-0.1995,-0.1995,-0.1995,0,0,-0.2111,-0.2116,-0.2158,-0.2194,-0.2225,-0.2236,-0.2249,-0.2261,-0.2274,-0.2298,-0.2253,-0.2261,-0.2232,-0.2257,-0.2256,-0.2329,-0.2237,-0.2306,-0.2433,-0.2383,-0.2395,-0.2404,-0.2356,-0.2359,-0.2337,-0.2338,-0.2338,0,-0.2109,-0.2176,-0.2171,-0.2241,-0.2281,-0.2262,-0.233,-0.2354,-0.236,-0.2362,-0.234,-0.2317,-0.231,-0.2371,-0.2417,-0.2379,-0.2299,-0.2382,-0.2408,-0.2415,-0.2421,-0.2369,-0.237,-0.2348,-0.2347,-0.2346,-0.2345,0,-0.2185,-0.2253,-0.2283,-0.2374,-0.2412,-0.2463,-0.2509,-0.2528,-0.2524,-0.2535,-0.2557,-0.2538,-0.2518,-0.2547,-0.2518,-0.257,-0.2484,-0.2423,-0.2375,-0.2449,-0.2388,-0.2385,-0.2364,-0.236,-0.2357,-0.2354,0,0,-0.2149,-0.2307,-0.232,-0.2382,-0.2487,-0.2512,-0.2611,-0.2668,-0.2669,-0.2718,-0.2718,-0.2801,-0.2742,-0.2735,-0.2705,-0.271,-0.2729,-0.2596,-0.2589,-0.2575,-0.2589,-0.2546,-0.2537,-0.2645,-0.2645,-0.2646,-0.254,0,-0.221,-0.2364,-0.2427,-0.256,-0.2643,-0.2673,-0.2741,-0.2783,-0.2783,-0.277,-0.2804,-0.2782,-0.2832,-0.2786,-0.2823,-0.2704,-0.2722,-0.2761,-0.2495,-0.2488,-0.2462,-0.2534,-0.243,-0.2326,-0.2536,-0.2535,-0.2535,0,-0.2262,-0.2368,-0.252,-0.2637,-0.2663,-0.2732,-0.2768,-0.282,-0.2829,-0.2805,-0.2833,-0.2793,-0.2855,-0.2824,-0.2799,-0.2797,-0.2726,-0.2665,-0.2657,-0.2535,-0.2439,-0.2276,-0.2311,-0.2303,-0.2528,-0.2529,-0.2529,0,-0.2237,-0.2412,-0.2527,-0.2587,-0.2727,-0.2761,-0.2798,-0.2824,-0.2807,-0.2799,-0.2747,-0.2803,-0.277,-0.274,-0.2708,-0.2704,-0.2607,-0.2572,-0.2491,-0.2485,-0.2306,-0.2286,-0.2322,-0.2541,-0.2541,-0.2541,-0.2542,0,-0.2291,-0.237,-0.2516,-0.2597,-0.2627,-0.2737,-0.272,-0.2742,-0.2734,-0.2697,-0.2748,-0.2719,-0.2731,-0.2697,-0.2668,-0.259,-0.2592,-0.2524,-0.2462,-0.238,-0.2368,-0.2276,-0.2288,-0.2537,-0.2538,-0.2539,-0.254,0,-0.2252,-0.2376,-0.2477,-0.262,-0.2629,-0.2637,-0.2642,-0.2618,-0.2639,-0.2581,-0.2575,-0.2618,-0.2596,-0.2608,-0.2523,-0.2518,-0.2398,-0.2409,-0.2328,-0.2262,-0.2187,-0.2213,-0.2137,-0.2081,-0.2291,-0.2289,-0.2288,0,-0.2255,-0.2323,-0.243,-0.2428,-0.2489,-0.2498,-0.2479,-0.2531,-0.2508,-0.2529,-0.2496,-0.2495,-0.2483,-0.2399,-0.2357,-0.2292,-0.2311,-0.2164,-0.2182,-0.2193,-0.2175,-0.2196,-0.2157,-0.2026,-0.2023,-0.202,-0.2018,0,-0.2224,-0.2248,-0.2319,-0.2312,-0.2313,-0.2277,-0.2287,-0.2267,-0.2329,-0.2324,-0.2343,-0.2348,-0.231,-0.2228,-0.2163,-0.2115,-0.2117,-0.2105,-0.2116,-0.1992,-0.2011,-0.1921,-0.2099,-0.1993,-0.1996,-0.1997,-0.1999,-0.2,-0.2122,-0.2122,-0.2177,-0.2143,-0.2122,-0.2067,-0.2009,-0.206,-0.2035,-0.2036,-0.2146,-0.2119,-0.2113,-0.2015,-0.1982,-0.1879,-0.1928,-0.1827,-0.1861,-0.1886,-0.184,-0.1992,-0.1824,-0.1825,-0.1826,-0.1828,-0.1829,0,-0.1987,-0.1997,-0.1984,-0.1943,-0.1849,-0.189,-0.1861,-0.1809,-0.1783,-0.1845,-0.1855,-0.1849,-0.178,-0.1792,-0.1721,-0.1658,-0.1625,-0.1631,-0.1634,-0.1607,-0.1715,-0.1712,-0.1513,-0.1513,-0.1513,-0.1513,-0.1513,-0.1513,-0.1909,-0.1863,-0.187,-0.1677,-0.1628,-0.1481,-0.1445,-0.1434,-0.1444,-0.1432,-0.1447,-0.1483,-0.1537,-0.169,-0.1632,-0.1563,-0.1548,-0.1491,-0.1538,-0.1627,-0.1648,-0.1669,-0.1672,-0.1467,-0.1467,-0.1358,-0.1358,-0.1357]},{"header":{"parameterUnit":"m.s-1","parameterCategory":2,"la1":30.2991,"la2":30.254,"lo1":-89.0895,"lo2":-89.0444,"dx":0.0017,"dy":0.0017,"nx":28,"ny":28,"refTime":"2022-11-05T21:00:00:Z","depth":"0","parameterNumber":3,"parameterNumberName":"V-component_of_CURRENTS"},"data":[0,0,0,0,0,0,0,0,0,0,0,0,0,0,0,0,0,0,0,0,0,0,0,0,0,0,0,0,0,0,0,0,0,0,0,0,0,0,0,0,0,0,0,0,0,0,0,0,0,0,0,0,0,0,0,0,0,0,0.041,0.0411,0,0.0535,0.0536,0.0538,0.0587,0.0586,0.0586,0.0585,0.0663,0.0665,0.0668,0,0,0,0,0,0,0,0,0,0,0,0,0,0.0306,0.0307,0.041,0.0411,0.0413,0.0534,0.0536,0.0538,0.0587,0.0586,0.0586,0.0585,0.0662,0.0665,0.0668,0,0,0,0,0,0,0,0,0,0,0,0,0,0.0384,0.0308,0.0409,0.0451,0.0456,0.0534,0.0536,0.0538,0.0587,0.0586,0.0585,0.0585,0.0661,0.0665,0.0668,0.0704,0,0,0.068,0.0681,0,0,0,0,0,0,0,0,0.0379,0.0388,0.0443,0.0448,0.0454,0.0544,0.0528,0.0591,0.0587,0.0538,0.0585,0.0585,0.0618,0.0626,0.0652,0.0707,0.0711,0.068,0.0682,0.0684,0.0685,0,0,0,0,0,0,0,0.0374,0.0383,0.046,0.0445,0.0451,0.0495,0.0505,0.0541,0.058,0.0542,0.0546,0.0558,0.0621,0.0649,0.0654,0.0712,0.068,0.0683,0.0685,0.0687,0.0783,0.0784,0,0,0,0,0,0,0.0352,0.0378,0.0456,0.0464,0.0413,0.0497,0.0508,0.0516,0.0581,0.059,0.0559,0.056,0.0643,0.065,0.0657,0.0674,0.0684,0.0687,0.0689,0.0783,0.0784,0.0784,0,0,0,0,0,0,0.035,0.0358,0.0451,0.0423,0.0438,0.0499,0.0508,0.0519,0.0544,0.0594,0.0602,0.0572,0.0643,0.0652,0.0683,0.0678,0.0689,0.0692,0.0783,0.0783,0.0784,0.0726,0,0,0,0,0,0,0.0346,0.0356,0.0355,0.0421,0.0438,0.0485,0.0509,0.0522,0.0553,0.0556,0.0608,0.0615,0.0643,0.0677,0.0686,0.0684,0.0695,0.0782,0.0783,0.0784,0.0727,0.0725,0.0722,0,0,0,0,0,0.0342,0.0337,0.0354,0.0364,0.0434,0.0485,0.0497,0.054,0.0554,0.0561,0.0597,0.0614,0.0688,0.068,0.0691,0.0689,0.0782,0.0783,0.0784,0.0729,0.0725,0.0722,0,0,0,0,0,0,0.0284,0.0344,0.0363,0.0374,0.0421,0.0492,0.0501,0.0538,0.0577,0.0572,0.0621,0.063,0.0655,0.0685,0.0675,0.0721,0.0737,0.074,0.0692,0.0689,0.0686,0.0657,0.0698,0,0,0,0,0,0.0272,0.0286,0.035,0.0356,0.0375,0.0439,0.0465,0.0495,0.054,0.0557,0.0597,0.0635,0.067,0.0687,0.0721,0.0749,0.0763,0.0755,0.0752,0.075,0.0735,0.0757,0.0754,0.0787,0.0787,0.0787,0,0,0.0249,0.0285,0.029,0.0345,0.0381,0.0393,0.0453,0.0482,0.0493,0.0558,0.0577,0.0626,0.0676,0.0702,0.0716,0.0724,0.075,0.0751,0.0748,0.0734,0.0757,0.0754,0.0751,0.0787,0.0787,0.0787,0,0,0.0196,0.024,0.0227,0.0262,0.0312,0.0358,0.0363,0.0431,0.0462,0.0497,0.0543,0.0591,0.0642,0.0683,0.0709,0.0715,0.0733,0.0725,0.0688,0.071,0.0707,0.0704,0.0718,0.0717,0.0725,0.0725,0.0724,0,0.016,0.0152,0.023,0.0225,0.0239,0.0333,0.0315,0.0369,0.0439,0.046,0.0485,0.0583,0.0632,0.0672,0.0676,0.0707,0.0714,0.0694,0.0704,0.0701,0.07,0.0715,0.0714,0.0722,0.0722,0.0722,0.0723,0,0.0099,0.009,0.0084,0.0107,0.0143,0.0143,0.0225,0.026,0.0313,0.0369,0.0427,0.0514,0.0566,0.0602,0.0641,0.0662,0.0669,0.0694,0.0704,0.0692,0.071,0.071,0.0718,0.0719,0.072,0.072,0,0,0.0014,0.0031,0.0025,0.0007,0.0075,0.0094,0.0123,0.0174,0.0189,0.0282,0.0299,0.0405,0.0468,0.0502,0.0576,0.0612,0.0622,0.064,0.0643,0.0639,0.0653,0.0715,0.0722,0.0639,0.0639,0.0639,0.0669,0,-0.0071,-0.0134,-0.0079,-0.0126,-0.0153,-0.0054,-0.0028,0.0042,0.0116,0.0163,0.0282,0.0331,0.0428,0.0456,0.0509,0.0594,0.062,0.061,0.0677,0.0679,0.0724,0.0724,0.0776,0.0812,0.067,0.067,0.067,0,-0.0158,-0.0189,-0.0267,-0.0257,-0.0253,-0.0244,-0.0189,-0.0154,-0.0044,0.0014,0.0101,0.0197,0.029,0.036,0.0495,0.048,0.0549,0.0619,0.0622,0.0697,0.0742,0.0803,0.0819,0.098,0.0671,0.0671,0.0671,0,-0.0284,-0.0315,-0.0389,-0.0389,-0.0355,-0.035,-0.0311,-0.0207,-0.0173,-0.0083,-0.0048,0.008,0.0148,0.0256,0.0443,0.0447,0.0579,0.0601,0.072,0.0725,0.0792,0.0803,0.0959,0.066,0.066,0.066,0.0659,0,-0.0409,-0.046,-0.0454,-0.0498,-0.0538,-0.0461,-0.0466,-0.0403,-0.0316,-0.0275,-0.0133,-0.0064,0.0123,0.0249,0.0389,0.0574,0.0539,0.0707,0.0738,0.0776,0.0785,0.0948,0.0994,0.0661,0.066,0.066,0.066,0,-0.0541,-0.0546,-0.0621,-0.0617,-0.0608,-0.0631,-0.0563,-0.0552,-0.0456,-0.0406,-0.0382,-0.019,-0.0009,0.0192,0.038,0.0514,0.0768,0.0738,0.0774,0.0809,0.1062,0.1101,0.1229,0.1318,0.085,0.0851,0.0853,0,-0.0611,-0.0682,-0.0721,-0.0745,-0.0743,-0.075,-0.0735,-0.0641,-0.0608,-0.0457,-0.0434,-0.0252,-0.0075,0.0242,0.0497,0.0737,0.0848,0.09,0.0927,0.1085,0.1151,0.1165,0.1232,0.0989,0.0991,0.0993,0.0995,0,-0.0746,-0.0765,-0.0822,-0.0883,-0.0892,-0.0893,-0.0859,-0.0851,-0.0723,-0.0642,-0.0481,-0.0334,0.0012,0.0353,0.0669,0.081,0.1017,0.0948,0.1106,0.1266,0.1296,0.1395,0.0953,0.1013,0.1011,0.101,0.1009,0.1008,-0.0819,-0.089,-0.0959,-0.1002,-0.1011,-0.0999,-0.0992,-0.0929,-0.0859,-0.0679,-0.0519,-0.0216,0.0251,0.0734,0.0898,0.1254,0.118,0.1355,0.1384,0.1381,0.1491,0.1088,0.1192,0.1192,0.1191,0.119,0.119,0,-0.0913,-0.098,-0.1053,-0.1093,-0.1102,-0.1077,-0.1037,-0.0987,-0.0892,-0.0661,-0.0449,0.0165,0.0625,0.1036,0.1523,0.1698,0.1722,0.1768,0.1811,0.1855,0.1506,0.1541,0.1734,0.1734,0.1734,0.1734,0.1734,0.1734,-0.096,-0.107,-0.1112,-0.1149,-0.1155,-0.1142,-0.111,-0.1011,-0.0832,-0.0428,-0.0038,0.0302,0.0891,0.1637,0.2082,0.2101,0.2249,0.2203,0.2282,0.2063,0.2027,0.1993,0.2042,0.2337,0.2338,0.2641,0.2644,0.2646]}],[{"header":{"parameterUnit":"m.s-1","parameterCategory":2,"la1":30.2991,"la2":30.254,"lo1":-89.0895,"lo2":-89.0444,"dx":0.0017,"dy":0.0017,"nx":28,"ny":28,"refTime":"2022-11-05T21:00:00:Z","depth":"2","parameterNumber":2,"parameterNumberName":"U-component_of_CURRENTS"},"data":[0,0,0,0,0,0,0,0,0,0,0,0,0,0,0,0,0,0,0,0,0,0,0,0,0,0,0,0,0,0,0,0,0,0,0,0,0,0,0,0,0,0,0,0,0,0,0,0,0,0,0,0,0,0,0,0,0,0,-0.2056,-0.2056,0,-0.2044,-0.2043,-0.2042,-0.2032,-0.2033,-0.2033,-0.2034,-0.1974,-0.1972,-0.197,0,0,0,0,0,0,0,0,0,0,0,0,0,-0.1973,-0.1975,-0.2056,-0.2057,-0.2057,-0.2044,-0.2043,-0.2042,-0.2032,-0.2033,-0.2033,-0.2034,-0.1975,-0.1972,-0.197,0,0,0,0,0,0,0,0,0,0,0,0,0,-0.1984,-0.1975,-0.2056,-0.2055,-0.2056,-0.2044,-0.2043,-0.2042,-0.2032,-0.2033,-0.2034,-0.2034,-0.1976,-0.1973,-0.197,-0.1935,0,0,-0.196,-0.1959,0,0,0,0,0,0,0,0,-0.1983,-0.1986,-0.2055,-0.2056,-0.2056,-0.2046,-0.1992,-0.2006,-0.2032,-0.2034,-0.2034,-0.2035,-0.1998,-0.1993,-0.198,-0.1932,-0.1929,-0.196,-0.1958,-0.1957,-0.1956,0,0,0,0,0,0,0,-0.1982,-0.1986,-0.2044,-0.2056,-0.2056,-0.2023,-0.2025,-0.1994,-0.2005,-0.2034,-0.2035,-0.2044,-0.1997,-0.1983,-0.1978,-0.1929,-0.196,-0.1957,-0.1955,-0.1954,-0.1911,-0.1911,0,0,0,0,0,0,-0.2002,-0.1986,-0.2045,-0.2045,-0.2028,-0.2025,-0.2027,-0.2043,-0.2007,-0.2004,-0.2043,-0.2044,-0.1988,-0.1982,-0.1976,-0.2051,-0.1957,-0.1954,-0.1952,-0.191,-0.1911,-0.1912,0,0,0,0,0,0,-0.2001,-0.2008,-0.2045,-0.2019,-0.2023,-0.2027,-0.2044,-0.2043,-0.2041,-0.2016,-0.2011,-0.2046,-0.1988,-0.1981,-0.1964,-0.2044,-0.1952,-0.1949,-0.1909,-0.191,-0.1911,-0.2124,0,0,0,0,0,0,-0.1998,-0.2007,-0.2019,-0.2021,-0.2026,-0.2066,-0.2044,-0.2042,-0.2049,-0.2049,-0.2016,-0.2011,-0.1988,-0.1969,-0.1961,-0.2038,-0.1947,-0.1908,-0.191,-0.1911,-0.2116,-0.2133,-0.2146,0,0,0,0,0,-0.1995,-0.2021,-0.202,-0.2027,-0.2044,-0.2068,-0.2066,-0.2065,-0.2048,-0.2062,-0.2032,-0.2013,-0.1973,-0.1967,-0.1958,-0.2036,-0.1908,-0.1909,-0.1911,-0.211,-0.2129,-0.2146,0,0,0,0,0,0,-0.1989,-0.2023,-0.2022,-0.2055,-0.2071,-0.2069,-0.208,-0.207,-0.2054,-0.2049,-0.2012,-0.2005,-0.2021,-0.1976,-0.197,-0.2019,-0.1941,-0.194,-0.2095,-0.2113,-0.2127,-0.2132,-0.1944,0,0,0,0,0,-0.1995,-0.2022,-0.2045,-0.2069,-0.2082,-0.2076,-0.2081,-0.2084,-0.2074,-0.2068,-0.2051,-0.2024,-0.2015,-0.2022,-0.1991,-0.2015,-0.1945,-0.2055,-0.207,-0.2084,-0.2076,-0.203,-0.2041,-0.1917,-0.1917,-0.1917,0,0,-0.1996,-0.2019,-0.2033,-0.207,-0.2075,-0.2133,-0.2081,-0.2103,-0.2156,-0.2062,-0.2111,-0.2064,-0.2022,-0.2059,-0.2064,-0.2041,-0.2085,-0.2086,-0.2099,-0.2082,-0.2033,-0.2045,-0.2056,-0.1918,-0.1918,-0.1918,0,0,-0.2032,-0.2038,-0.2083,-0.2119,-0.2151,-0.2159,-0.2173,-0.2185,-0.2195,-0.2221,-0.2177,-0.2182,-0.2155,-0.2173,-0.217,-0.2239,-0.215,-0.2218,-0.2329,-0.2287,-0.2297,-0.2306,-0.2256,-0.2259,-0.2249,-0.2249,-0.2249,0,-0.2032,-0.2101,-0.2096,-0.2168,-0.2199,-0.2186,-0.2246,-0.2275,-0.2282,-0.2268,-0.2264,-0.2227,-0.2229,-0.227,-0.2318,-0.2287,-0.221,-0.2282,-0.2311,-0.2317,-0.2322,-0.2269,-0.2269,-0.226,-0.2258,-0.2257,-0.2256,0,-0.2115,-0.2183,-0.2214,-0.2305,-0.2332,-0.2381,-0.2424,-0.243,-0.2427,-0.2437,-0.2443,-0.2437,-0.2406,-0.244,-0.2416,-0.2458,-0.2374,-0.2326,-0.228,-0.2349,-0.2287,-0.2283,-0.2275,-0.2271,-0.2268,-0.2265,0,0,-0.2083,-0.2241,-0.2255,-0.2307,-0.2405,-0.2419,-0.25,-0.253,-0.2522,-0.2576,-0.2563,-0.2643,-0.2594,-0.2584,-0.2563,-0.2573,-0.2599,-0.2477,-0.247,-0.2453,-0.247,-0.243,-0.242,-0.2533,-0.2533,-0.2533,-0.2423,0,-0.2145,-0.229,-0.2352,-0.2471,-0.2537,-0.255,-0.2602,-0.2622,-0.2618,-0.2604,-0.2634,-0.2622,-0.2671,-0.2635,-0.2672,-0.2573,-0.2589,-0.2631,-0.2381,-0.2374,-0.2351,-0.2416,-0.2234,-0.2121,-0.2418,-0.2417,-0.2417,0,-0.2203,-0.229,-0.2421,-0.251,-0.2529,-0.2598,-0.258,-0.2628,-0.2625,-0.2601,-0.2622,-0.2601,-0.266,-0.2655,-0.263,-0.2631,-0.2577,-0.2529,-0.2521,-0.2399,-0.2325,-0.209,-0.21,-0.2408,-0.2409,-0.2409,-0.241,0,-0.2162,-0.2321,-0.2408,-0.2462,-0.2575,-0.2588,-0.2615,-0.2614,-0.2592,-0.2588,-0.2546,-0.2593,-0.2585,-0.2557,-0.2547,-0.2545,-0.2459,-0.2436,-0.2361,-0.2356,-0.2111,-0.2086,-0.2404,-0.2404,-0.2404,-0.2405,-0.2405,0,-0.2215,-0.2278,-0.2392,-0.2467,-0.2457,-0.2555,-0.2523,-0.2527,-0.2525,-0.2494,-0.2547,-0.2528,-0.2548,-0.2523,-0.2504,-0.2436,-0.2439,-0.2382,-0.2331,-0.2182,-0.2165,-0.2329,-0.2321,-0.24,-0.2401,-0.2402,-0.2403,0,-0.2185,-0.2288,-0.236,-0.2467,-0.2461,-0.2449,-0.2451,-0.2427,-0.2448,-0.2402,-0.2403,-0.2449,-0.243,-0.2442,-0.2373,-0.2368,-0.2301,-0.2271,-0.2108,-0.2043,-0.2229,-0.2234,-0.2155,-0.2153,-0.2151,-0.215,-0.2148,0,-0.2192,-0.2245,-0.2306,-0.2283,-0.2339,-0.2323,-0.2295,-0.2344,-0.2331,-0.236,-0.2339,-0.2345,-0.2331,-0.2255,-0.2207,-0.2138,-0.223,-0.1946,-0.1954,-0.2248,-0.2206,-0.2214,-0.2221,-0.1705,-0.1701,-0.1697,-0.1693,0,-0.2166,-0.2181,-0.2217,-0.2178,-0.2163,-0.2114,-0.2122,-0.2107,-0.2173,-0.2172,-0.2199,-0.2203,-0.2161,-0.2028,-0.196,-0.1908,-0.195,-0.1865,-0.2168,-0.1826,-0.1822,-0.1783,-0.1804,-0.1658,-0.1662,-0.1664,-0.1666,-0.1668,-0.2062,-0.2038,-0.2063,-0.199,-0.1968,-0.1923,-0.1866,-0.1916,-0.1894,-0.189,-0.2,-0.1935,-0.1935,-0.1732,-0.1664,-0.1601,-0.1733,-0.1656,-0.1667,-0.1683,-0.168,-0.1677,-0.1483,-0.1485,-0.1488,-0.1489,-0.1491,0,-0.1921,-0.1899,-0.1858,-0.1784,-0.1718,-0.1758,-0.1731,-0.1675,-0.1648,-0.1676,-0.1673,-0.1501,-0.142,-0.1425,-0.1269,-0.1265,-0.1246,-0.1222,-0.1189,-0.1223,-0.1254,-0.1231,-0.0914,-0.0912,-0.0911,-0.0909,0,0,-0.1827,-0.1744,-0.1719,-0.1531,-0.1496,-0.1377,-0.1346,-0.1312,-0.1292,-0.1226,-0.1182,-0.1277,-0.1341,-0.1103,-0.1074,-0.0964,-0.1079,-0.0917,-0.1373,-0.1363,-0.1392,-0.1492,-0.1494,0,0,0,0,0]},{"header":{"parameterUnit":"m.s-1","parameterCategory":2,"la1":30.2991,"la2":30.254,"lo1":-89.0895,"lo2":-89.0444,"dx":0.0017,"dy":0.0017,"nx":28,"ny":28,"refTime":"2022-11-05T21:00:00:Z","depth":"2","parameterNumber":3,"parameterNumberName":"V-component_of_CURRENTS"},"data":[0,0,0,0,0,0,0,0,0,0,0,0,0,0,0,0,0,0,0,0,0,0,0,0,0,0,0,0,0,0,0,0,0,0,0,0,0,0,0,0,0,0,0,0,0,0,0,0,0,0,0,0,0,0,0,0,0,0,0.0256,0.0257,0,0.0379,0.038,0.0381,0.0429,0.0429,0.0429,0.0429,0.052,0.0522,0.0525,0,0,0,0,0,0,0,0,0,0,0,0,0,0.0118,0.0119,0.0255,0.0257,0.0259,0.0378,0.038,0.0381,0.0429,0.0429,0.0429,0.0429,0.0519,0.0522,0.0525,0,0,0,0,0,0,0,0,0,0,0,0,0,0.0201,0.012,0.0255,0.0298,0.0304,0.0378,0.038,0.0382,0.0429,0.0429,0.0429,0.0429,0.0518,0.0522,0.0525,0.0555,0,0,0.0537,0.0539,0,0,0,0,0,0,0,0,0.0196,0.0206,0.029,0.0296,0.0302,0.039,0.0365,0.0439,0.043,0.038,0.0429,0.0429,0.0474,0.0482,0.0504,0.0559,0.0563,0.0538,0.054,0.0542,0.0543,0,0,0,0,0,0,0,0.019,0.0201,0.0303,0.0292,0.0299,0.0331,0.0342,0.0379,0.0425,0.0384,0.0388,0.0405,0.0477,0.05,0.0506,0.0564,0.0537,0.0541,0.0543,0.0545,0.0649,0.065,0,0,0,0,0,0,0.0176,0.0196,0.0299,0.0306,0.0249,0.0333,0.0346,0.036,0.0426,0.0436,0.0405,0.0407,0.0493,0.0502,0.051,0.0537,0.0542,0.0545,0.0547,0.0649,0.0649,0.065,0,0,0,0,0,0,0.0173,0.0184,0.0294,0.0255,0.0271,0.0336,0.0352,0.0363,0.0391,0.0442,0.0452,0.0422,0.0494,0.0504,0.0545,0.0541,0.0547,0.055,0.0648,0.0649,0.065,0.0599,0,0,0,0,0,0,0.0168,0.0182,0.0186,0.0254,0.0273,0.0327,0.0353,0.0366,0.0402,0.0405,0.046,0.0468,0.0494,0.0539,0.0549,0.0546,0.0553,0.0648,0.0649,0.0649,0.06,0.0597,0.0596,0,0,0,0,0,0.0163,0.0164,0.0186,0.0198,0.0277,0.0327,0.034,0.0384,0.0403,0.0409,0.0452,0.0467,0.0551,0.0543,0.0554,0.0553,0.0647,0.0648,0.0649,0.0601,0.0598,0.0596,0,0,0,0,0,0,0.0101,0.0171,0.0196,0.0217,0.0266,0.0336,0.0347,0.0386,0.0428,0.043,0.0478,0.0489,0.0521,0.055,0.054,0.0587,0.06,0.0603,0.0559,0.0557,0.0555,0.0513,0.0557,0,0,0,0,0,0.0092,0.0115,0.0183,0.02,0.022,0.0286,0.0313,0.0347,0.0396,0.0415,0.0459,0.0501,0.0535,0.0555,0.059,0.0621,0.0635,0.0627,0.0625,0.0623,0.0598,0.0629,0.0627,0.0653,0.0653,0.0653,0,0,0.0073,0.0116,0.0128,0.019,0.0229,0.0243,0.0301,0.0337,0.0352,0.0417,0.0447,0.0496,0.0543,0.0572,0.0589,0.0595,0.0625,0.0624,0.0622,0.0597,0.063,0.0627,0.0625,0.0654,0.0654,0.0654,0,0,0.0033,0.0082,0.0079,0.0114,0.0173,0.0216,0.0225,0.0298,0.033,0.0374,0.042,0.0469,0.0527,0.056,0.0582,0.0593,0.0612,0.0606,0.0562,0.0593,0.0591,0.0588,0.0605,0.0604,0.0605,0.0605,0.0605,0,0.0001,0.0006,0.0085,0.0086,0.01,0.0197,0.0182,0.0237,0.0316,0.0333,0.037,0.0464,0.0516,0.0544,0.055,0.0585,0.0597,0.0566,0.0588,0.0586,0.0585,0.0602,0.0602,0.0603,0.0603,0.0603,0.0604,0,-0.0043,-0.0044,-0.0044,-0.0013,0.002,0.0024,0.0105,0.014,0.0199,0.0254,0.031,0.04,0.0447,0.0483,0.052,0.0538,0.0548,0.058,0.0586,0.0578,0.0598,0.0599,0.06,0.06,0.0601,0.0602,0,0,-0.0116,-0.009,-0.0092,-0.0109,-0.0041,-0.0023,0.0004,0.0047,0.0064,0.0161,0.0177,0.0275,0.034,0.037,0.0442,0.0481,0.0501,0.0517,0.052,0.0518,0.0551,0.0603,0.061,0.0533,0.0533,0.0533,0.0569,0,-0.019,-0.0243,-0.0187,-0.0227,-0.0257,-0.0166,-0.0144,-0.008,-0.0005,0.0046,0.0154,0.0211,0.0295,0.033,0.0381,0.0475,0.05,0.0486,0.0571,0.0573,0.0609,0.0612,0.0569,0.0601,0.057,0.057,0.057,0,-0.0263,-0.0293,-0.0368,-0.0362,-0.0359,-0.0347,-0.0308,-0.027,-0.0167,-0.0106,-0.0025,0.0076,0.0163,0.0238,0.0371,0.0356,0.0432,0.0506,0.051,0.057,0.0627,0.0606,0.0605,0.0572,0.0572,0.0572,0.0572,0,-0.0389,-0.0414,-0.0489,-0.049,-0.0461,-0.0462,-0.0423,-0.033,-0.0292,-0.0198,-0.0155,-0.0036,0.0043,0.015,0.0336,0.034,0.0477,0.0506,0.0615,0.0619,0.0604,0.0608,0.0564,0.0564,0.0564,0.0564,0.0564,0,-0.0508,-0.0556,-0.0554,-0.0598,-0.0642,-0.0571,-0.0572,-0.0512,-0.0421,-0.0374,-0.0234,-0.0162,0.0025,0.0152,0.0287,0.0468,0.0443,0.0594,0.0632,0.0588,0.059,0.0582,0.0584,0.0565,0.0565,0.0565,0.0564,0,-0.0633,-0.0641,-0.0716,-0.0718,-0.0709,-0.0734,-0.0656,-0.064,-0.0544,-0.0483,-0.0454,-0.0265,-0.0086,0.0105,0.0297,0.042,0.0576,0.0636,0.0572,0.0602,0.0696,0.0695,0.0736,0.0738,0.074,0.0741,0.0743,0,-0.0698,-0.0772,-0.0812,-0.0834,-0.083,-0.0836,-0.0819,-0.0721,-0.068,-0.0526,-0.0497,-0.0315,-0.0149,0.0161,0.0391,0.0616,0.0623,0.0691,0.07,0.0681,0.0714,0.071,0.0706,0.0654,0.0655,0.0655,0.0655,0,-0.083,-0.085,-0.0908,-0.0964,-0.0967,-0.096,-0.0918,-0.0905,-0.0775,-0.0693,-0.0535,-0.0397,-0.0076,0.0196,0.0489,0.061,0.0655,0.0707,0.0701,0.0631,0.0611,0.0642,0.0639,0.0659,0.0658,0.0658,0.0658,0.0658,-0.09,-0.0973,-0.1041,-0.1076,-0.1076,-0.1051,-0.104,-0.0973,-0.0899,-0.0733,-0.058,-0.0325,-0.0076,0.0372,0.056,0.0728,0.0734,0.0763,0.0758,0.0754,0.0752,0.0738,0.0807,0.0808,0.0808,0.0808,0.0809,0,-0.0996,-0.1061,-0.1127,-0.1158,-0.1152,-0.1124,-0.1074,-0.1025,-0.0935,-0.0744,-0.0552,-0.0231,0.0091,0.0348,0.0632,0.0797,0.076,0.0796,0.0719,0.0715,0.0712,0.0704,0.0749,0.0749,0.0749,0.075,0,0,-0.1046,-0.1151,-0.1188,-0.1203,-0.1201,-0.1177,-0.1142,-0.1052,-0.0904,-0.0712,-0.0497,-0.0197,0.0128,0.0316,0.0505,0.0641,0.0625,0.0635,0.0664,0.0543,0.0538,0.0674,0.0657,0,0,0,0,0]}],[{"header":{"parameterUnit":"m.s-1","parameterCategory":2,"la1":30.2991,"la2":30.254,"lo1":-89.0895,"lo2":-89.0444,"dx":0.0017,"dy":0.0017,"nx":28,"ny":28,"refTime":"2022-11-05T21:00:00:Z","depth":"4","parameterNumber":2,"parameterNumberName":"U-component_of_CURRENTS"},"data":[0,0,0,0,0,0,0,0,0,0,0,0,0,0,0,0,0,0,0,0,0,0,0,0,0,0,0,0,0,0,0,0,0,0,0,0,0,0,0,0,0,0,0,0,0,0,0,0,0,0,0,0,0,0,0,0,0,0,-0.0832,-0.0832,0,-0.0866,-0.0867,-0.0867,-0.0903,-0.0904,-0.0904,-0.0905,-0.094,-0.094,-0.0941,0,0,0,0,0,0,0,0,0,0,0,0,0,-0.0783,-0.0784,-0.0832,-0.0832,-0.0833,-0.0866,-0.0867,-0.0867,-0.0903,-0.0904,-0.0904,-0.0905,-0.0939,-0.094,-0.0941,0,0,0,0,0,0,0,0,0,0,0,0,0,-0.081,-0.0784,-0.0832,-0.0854,-0.0856,-0.0866,-0.0867,-0.0868,-0.0903,-0.0904,-0.0904,-0.0905,-0.0939,-0.094,-0.0941,-0.0932,0,0,-0.0943,-0.0943,0,0,0,0,0,0,0,0,-0.0809,-0.0812,-0.085,-0.0852,-0.0855,-0.0881,-0.0863,-0.0889,-0.0903,-0.0886,-0.0905,-0.0905,-0.0919,-0.0921,-0.0927,-0.0934,-0.0936,-0.0943,-0.0944,-0.0944,-0.0944,0,0,0,0,0,0,0,-0.0807,-0.0811,-0.0846,-0.0851,-0.0854,-0.0858,-0.0862,-0.0868,-0.0899,-0.0888,-0.089,-0.0893,-0.092,-0.0927,-0.0929,-0.0936,-0.0943,-0.0944,-0.0944,-0.0945,-0.1016,-0.1017,0,0,0,0,0,0,-0.0801,-0.0809,-0.0845,-0.0847,-0.0832,-0.0858,-0.0863,-0.0872,-0.0899,-0.0903,-0.0892,-0.0894,-0.0925,-0.0928,-0.093,-0.1003,-0.0944,-0.0945,-0.0945,-0.1015,-0.1016,-0.1018,0,0,0,0,0,0,-0.08,-0.0805,-0.0844,-0.0828,-0.0833,-0.0858,-0.0868,-0.0873,-0.0897,-0.0902,-0.0907,-0.0914,-0.0926,-0.0929,-0.0961,-0.1001,-0.0945,-0.0946,-0.1013,-0.1015,-0.1017,-0.1097,0,0,0,0,0,0,-0.0799,-0.0804,-0.0818,-0.0828,-0.0834,-0.0872,-0.0867,-0.0873,-0.0896,-0.09,-0.0922,-0.0925,-0.0926,-0.096,-0.0962,-0.1001,-0.0946,-0.1011,-0.1014,-0.1016,-0.1092,-0.1101,-0.1109,0,0,0,0,0,-0.0797,-0.0815,-0.0819,-0.0824,-0.085,-0.0873,-0.0878,-0.0897,-0.0897,-0.0919,-0.0934,-0.0925,-0.0978,-0.0962,-0.0964,-0.1004,-0.101,-0.1013,-0.1016,-0.1088,-0.1099,-0.1109,0,0,0,0,0,0,-0.0797,-0.0821,-0.0825,-0.0849,-0.0868,-0.088,-0.0899,-0.0906,-0.0933,-0.094,-0.094,-0.0945,-0.0985,-0.0981,-0.0963,-0.1032,-0.0994,-0.0997,-0.1048,-0.1058,-0.1067,-0.1099,-0.0947,0,0,0,0,0,-0.0803,-0.0828,-0.0843,-0.0864,-0.0874,-0.0887,-0.0901,-0.0915,-0.0933,-0.0946,-0.0962,-0.0978,-0.0995,-0.1017,-0.1025,-0.1065,-0.1072,-0.1092,-0.1101,-0.1108,-0.1135,-0.1162,-0.1176,-0.1028,-0.1028,-0.1028,0,0,-0.0805,-0.0823,-0.0835,-0.0866,-0.088,-0.0903,-0.0899,-0.0928,-0.0955,-0.0944,-0.0993,-0.1002,-0.1008,-0.1054,-0.1073,-0.1062,-0.1156,-0.1112,-0.1118,-0.1142,-0.1167,-0.1181,-0.1194,-0.103,-0.103,-0.103,0,0,-0.0819,-0.084,-0.0864,-0.0884,-0.0914,-0.0928,-0.0939,-0.0966,-0.0991,-0.1024,-0.1031,-0.1072,-0.1087,-0.1123,-0.1133,-0.1192,-0.1188,-0.1193,-0.1278,-0.1303,-0.1316,-0.1327,-0.1366,-0.138,-0.1211,-0.1211,-0.1211,0,-0.0819,-0.0851,-0.0875,-0.09,-0.0927,-0.094,-0.0973,-0.0994,-0.1031,-0.1071,-0.1048,-0.1113,-0.1121,-0.1196,-0.1232,-0.1214,-0.1232,-0.1239,-0.1316,-0.1327,-0.1337,-0.1373,-0.1388,-0.1215,-0.1215,-0.1214,-0.1214,0,-0.0843,-0.0874,-0.089,-0.0931,-0.097,-0.0997,-0.1033,-0.1088,-0.1108,-0.1123,-0.1194,-0.1205,-0.1256,-0.1264,-0.1271,-0.1364,-0.1356,-0.1311,-0.1292,-0.1357,-0.1391,-0.1404,-0.1221,-0.122,-0.1218,-0.1217,0,0,-0.0821,-0.0893,-0.0899,-0.0929,-0.0992,-0.102,-0.1103,-0.1177,-0.1245,-0.1256,-0.1347,-0.1372,-0.1386,-0.1402,-0.1417,-0.146,-0.1552,-0.144,-0.1439,-0.1484,-0.1632,-0.1475,-0.1474,-0.1523,-0.1525,-0.1527,-0.1631,0,-0.0829,-0.0885,-0.0932,-0.0992,-0.1025,-0.11,-0.1182,-0.1257,-0.1314,-0.1405,-0.1422,-0.1481,-0.1429,-0.1482,-0.1511,-0.1546,-0.1591,-0.153,-0.1559,-0.1561,-0.1416,-0.1485,-0.1535,-0.1641,-0.1644,-0.1646,-0.1648,0,-0.0828,-0.0875,-0.0943,-0.1049,-0.1075,-0.1125,-0.129,-0.1366,-0.1498,-0.1552,-0.1615,-0.1618,-0.1702,-0.1635,-0.17,-0.1667,-0.1672,-0.1676,-0.1678,-0.1516,-0.1428,-0.1559,-0.1672,-0.167,-0.1668,-0.1667,-0.1665,0,-0.0791,-0.0877,-0.094,-0.0967,-0.1093,-0.1172,-0.1259,-0.1411,-0.151,-0.1658,-0.1725,-0.1782,-0.1819,-0.1832,-0.18,-0.1781,-0.1855,-0.1814,-0.1675,-0.1665,-0.174,-0.1727,-0.1867,-0.1867,-0.1866,-0.1866,-0.1866,0,-0.0768,-0.081,-0.0926,-0.0949,-0.1074,-0.1166,-0.1324,-0.144,-0.1609,-0.1708,-0.1783,-0.184,-0.1869,-0.1884,-0.1867,-0.1795,-0.1888,-0.1716,-0.1683,-0.1772,-0.1761,-0.1751,-0.1736,-0.187,-0.1869,-0.1868,-0.1868,0,-0.0697,-0.0776,-0.0845,-0.0984,-0.1055,-0.114,-0.136,-0.147,-0.1623,-0.1769,-0.1815,-0.1911,-0.1914,-0.1909,-0.1938,-0.1847,-0.1824,-0.1773,-0.1894,-0.1862,-0.1619,-0.1608,-0.1672,-0.1667,-0.1664,-0.166,-0.1657,0,-0.0665,-0.0691,-0.0852,-0.0944,-0.1009,-0.1167,-0.1304,-0.1485,-0.1582,-0.1768,-0.181,-0.1873,-0.1899,-0.1817,-0.1827,-0.1788,-0.1737,-0.1739,-0.167,-0.1639,-0.1602,-0.1596,-0.159,-0.1651,-0.165,-0.1649,-0.1648,0,-0.059,-0.0646,-0.0708,-0.0897,-0.1036,-0.1193,-0.1353,-0.1416,-0.1603,-0.1737,-0.176,-0.1755,-0.1753,-0.1726,-0.1689,-0.1653,-0.1753,-0.1698,-0.1706,-0.1641,-0.1615,-0.158,-0.1579,-0.1635,-0.1637,-0.1638,-0.1639,0,-0.0538,-0.0561,-0.0669,-0.0841,-0.1022,-0.1155,-0.1256,-0.1353,-0.1466,-0.1628,-0.1623,-0.1671,-0.1737,-0.1656,-0.1627,-0.1571,-0.1544,-0.1497,-0.1515,-0.1531,-0.1423,-0.1365,-0.1303,0,0,0,0,0,-0.0479,-0.0509,-0.0634,-0.0808,-0.0981,-0.1083,-0.1276,-0.1364,-0.1509,-0.1487,-0.155,-0.1534,-0.1491,-0.1518,-0.1425,-0.1554,-0.1548,-0.144,-0.1504,-0.1559,-0.1575,-0.1453,0,0,0,0,0,0,-0.0447,-0.051,-0.0578,-0.0749,-0.0859,-0.1029,-0.1135,-0.1236,-0.1227,-0.1359,-0.1336,-0.1427,-0.1398,-0.1498,-0.1382,-0.1388,-0.1396,-0.1473,-0.1469,-0.155,-0.1564,-0.1577,-0.1457,0,0,0,0,0]},{"header":{"parameterUnit":"m.s-1","parameterCategory":2,"la1":30.2991,"la2":30.254,"lo1":-89.0895,"lo2":-89.0444,"dx":0.0017,"dy":0.0017,"nx":28,"ny":28,"refTime":"2022-11-05T21:00:00:Z","depth":"4","parameterNumber":3,"parameterNumberName":"V-component_of_CURRENTS"},"data":[0,0,0,0,0,0,0,0,0,0,0,0,0,0,0,0,0,0,0,0,0,0,0,0,0,0,0,0,0,0,0,0,0,0,0,0,0,0,0,0,0,0,0,0,0,0,0,0,0,0,0,0,0,0,0,0,0,0,-0.0489,-0.0489,0,-0.0484,-0.0484,-0.0483,-0.0502,-0.0503,-0.0503,-0.0504,-0.0505,-0.0505,-0.0504,0,0,0,0,0,0,0,0,0,0,0,0,0,-0.0485,-0.0485,-0.0489,-0.0489,-0.0489,-0.0484,-0.0484,-0.0483,-0.0502,-0.0503,-0.0503,-0.0504,-0.0505,-0.0505,-0.0504,0,0,0,0,0,0,0,0,0,0,0,0,0,-0.0484,-0.0485,-0.0489,-0.0498,-0.0499,-0.0484,-0.0484,-0.0483,-0.0502,-0.0503,-0.0504,-0.0504,-0.0506,-0.0505,-0.0504,-0.0481,0,0,-0.0502,-0.0501,0,0,0,0,0,0,0,0,-0.0484,-0.0484,-0.0497,-0.0498,-0.0498,-0.0495,-0.0483,-0.0483,-0.0502,-0.05,-0.0504,-0.0505,-0.0502,-0.0502,-0.0498,-0.0481,-0.0481,-0.0501,-0.0501,-0.0501,-0.05,0,0,0,0,0,0,0,-0.0484,-0.0484,-0.0487,-0.0497,-0.0498,-0.0492,-0.0493,-0.0483,-0.0496,-0.05,-0.0502,-0.0502,-0.0503,-0.0498,-0.0498,-0.0481,-0.0501,-0.0501,-0.05,-0.05,-0.0433,-0.0432,0,0,0,0,0,0,-0.0486,-0.0484,-0.0487,-0.0486,-0.0494,-0.0491,-0.0493,-0.0495,-0.0496,-0.0497,-0.0501,-0.0503,-0.0499,-0.0499,-0.0498,-0.0482,-0.0501,-0.05,-0.0499,-0.0434,-0.0433,-0.0432,0,0,0,0,0,0,-0.0486,-0.0486,-0.0487,-0.0485,-0.0485,-0.0491,-0.0493,-0.0494,-0.05,-0.0496,-0.0498,-0.0507,-0.05,-0.0499,-0.0483,-0.0482,-0.05,-0.0499,-0.0436,-0.0434,-0.0432,-0.0442,0,0,0,0,0,0,-0.0486,-0.0487,-0.0492,-0.0486,-0.0485,-0.0478,-0.0492,-0.0493,-0.0498,-0.05,-0.0501,-0.0502,-0.0501,-0.0484,-0.0482,-0.0481,-0.0498,-0.0438,-0.0435,-0.0433,-0.0443,-0.044,-0.0438,0,0,0,0,0,-0.0486,-0.0489,-0.0492,-0.0493,-0.0492,-0.0478,-0.0477,-0.0483,-0.0498,-0.0494,-0.049,-0.0502,-0.0468,-0.0483,-0.0481,-0.0479,-0.0439,-0.0436,-0.0433,-0.0444,-0.0441,-0.0438,0,0,0,0,0,0,-0.0488,-0.0491,-0.0495,-0.0498,-0.0489,-0.0481,-0.0483,-0.0486,-0.048,-0.0486,-0.0487,-0.0486,-0.0472,-0.0465,-0.0481,-0.0448,-0.0454,-0.0451,-0.0463,-0.046,-0.0458,-0.0457,-0.0497,0,0,0,0,0,-0.0491,-0.0498,-0.049,-0.0493,-0.049,-0.0487,-0.0486,-0.0486,-0.0479,-0.0479,-0.0477,-0.0468,-0.0455,-0.0451,-0.0436,-0.042,-0.0379,-0.0414,-0.0411,-0.0409,-0.0404,-0.0318,-0.0308,-0.0422,-0.0422,-0.0422,0,0,-0.0496,-0.0496,-0.0502,-0.0494,-0.0492,-0.0493,-0.0489,-0.0484,-0.0487,-0.0478,-0.0481,-0.0461,-0.0446,-0.0427,-0.042,-0.0426,-0.0355,-0.0406,-0.0405,-0.04,-0.0314,-0.0303,-0.0293,-0.042,-0.042,-0.0421,0,0,-0.0506,-0.0505,-0.0516,-0.0509,-0.0502,-0.0496,-0.0496,-0.0486,-0.0484,-0.0471,-0.0465,-0.0436,-0.0427,-0.0406,-0.0398,-0.0368,-0.0344,-0.0369,-0.0361,-0.0278,-0.0268,-0.0259,-0.0196,-0.0181,-0.037,-0.037,-0.037,0,-0.0514,-0.0527,-0.0513,-0.0518,-0.0519,-0.0502,-0.0508,-0.0499,-0.0484,-0.0466,-0.0473,-0.0418,-0.0414,-0.0376,-0.0372,-0.0364,-0.0317,-0.0381,-0.0275,-0.0265,-0.0256,-0.0193,-0.0176,-0.037,-0.037,-0.037,-0.037,0,-0.0527,-0.0544,-0.0547,-0.0554,-0.0543,-0.0544,-0.0526,-0.0507,-0.05,-0.0482,-0.0436,-0.0407,-0.0369,-0.0365,-0.0368,-0.03,-0.0288,-0.0282,-0.0288,-0.0245,-0.0182,-0.0164,-0.037,-0.037,-0.037,-0.037,0,0,-0.0539,-0.0558,-0.0562,-0.0575,-0.0564,-0.0555,-0.0541,-0.0512,-0.0486,-0.046,-0.0416,-0.039,-0.0356,-0.0342,-0.0324,-0.0263,-0.0166,-0.0251,-0.0246,-0.0196,0.0014,-0.003,-0.0015,-0.0138,-0.0135,-0.0132,0.0029,0,-0.0561,-0.059,-0.0584,-0.0606,-0.062,-0.0587,-0.057,-0.0533,-0.049,-0.0436,-0.0386,-0.0343,-0.0354,-0.0324,-0.0264,-0.0187,-0.0119,-0.0211,-0.0027,-0.0022,-0.0072,0.0004,-0.0122,0.0042,0.0046,0.0049,0.0051,0,-0.0576,-0.0599,-0.0636,-0.0634,-0.0632,-0.0635,-0.0578,-0.0558,-0.0471,-0.0427,-0.0358,-0.0312,-0.0232,-0.0238,-0.008,-0.0135,-0.0062,-0.0002,0.0006,-0.002,-0.0033,-0.0006,0.0084,0.0081,0.0079,0.0076,0.0075,0,-0.0597,-0.0625,-0.0661,-0.0668,-0.0665,-0.0657,-0.0637,-0.056,-0.0525,-0.0415,-0.0364,-0.0256,-0.0204,-0.0083,0.0007,-0.0014,0.019,0.0183,0.0217,0.0214,0.0206,0.0194,0.0317,0.0317,0.0317,0.0316,0.0316,0,-0.0622,-0.0648,-0.0681,-0.0707,-0.0715,-0.069,-0.0662,-0.0606,-0.0522,-0.0473,-0.0372,-0.0303,-0.016,-0.0044,0.0051,0.018,0.0231,0.024,0.0265,0.0197,0.0183,0.0218,0.0205,0.0322,0.0321,0.032,0.0319,0,-0.0642,-0.0671,-0.0713,-0.0733,-0.0737,-0.0739,-0.0703,-0.0666,-0.0583,-0.0506,-0.0473,-0.0323,-0.0168,-0.003,0.0171,0.0219,0.0361,0.0393,0.0308,0.0322,0.0324,0.0308,0.0477,0.0477,0.0477,0.0477,0.0477,0,-0.0652,-0.0688,-0.0743,-0.0767,-0.0786,-0.0787,-0.0778,-0.0706,-0.0663,-0.0525,-0.0488,-0.0326,-0.0223,0.0043,0.0177,0.0386,0.0386,0.0461,0.0396,0.0339,0.0346,0.033,0.0315,0.0477,0.0477,0.0477,0.0477,0,-0.0671,-0.0704,-0.0739,-0.0805,-0.0826,-0.0829,-0.0813,-0.0783,-0.0691,-0.0624,-0.0472,-0.0323,-0.0154,0.0036,0.019,0.0328,0.0421,0.0462,0.0462,0.0402,0.0341,0.0345,0.0329,0.0477,0.0477,0.0477,0.0477,0,-0.0675,-0.0701,-0.0766,-0.0815,-0.0852,-0.0862,-0.0844,-0.0782,-0.0725,-0.0574,-0.053,-0.0326,-0.0203,0.0007,0.0153,0.0284,0.0306,0.033,0.0338,0.034,0.0228,0.0126,0.0241,0,0,0,0,0,-0.0669,-0.0707,-0.0765,-0.0817,-0.0864,-0.0885,-0.0862,-0.0831,-0.0751,-0.0651,-0.0583,-0.0418,-0.0173,-0.0055,0.0072,0.0125,0.0306,0.0274,0.0331,0.0478,0.0478,0.0364,0,0,0,0,0,0,-0.066,-0.0718,-0.0761,-0.0823,-0.0862,-0.0894,-0.0882,-0.0829,-0.0755,-0.066,-0.0522,-0.0419,-0.0179,-0.0253,0.0063,0.0106,0.0153,0.0401,0.0403,0.0478,0.0478,0.0478,0.0361,0,0,0,0,0]}]]